sat.trackr.live / text

‹ back to catalog

YAOGAN-36 04A

NORAD 54746 · 2022-171A

PAYLOAD ACTIVE UNKNOWN

§ Identity

Operator
Country
PRC
Launch date
2022-12-14
Launch site
XICLF
Launch vehicle
Mass (kg)
RCS (m²)

External: N2YO · Heavens-Above · Gunter

§ Orbital elements

Epoch: 2026-05-25T01:45:28.330848Z

Period
94.70 min
Inclination
34.9916°
Eccentricity
0.0006547
Mean motion
15.20667725 rev/d
Perigee alt
499.3 km
Apogee alt
508.3 km
Semi-major
6,882.0 km
B*
2.8625e-4
RAAN
6.3385°
Arg perigee
78.7513°
Mean anomaly
281.3936°
Rev number
19,160

§ Raw data

YAOGAN-36 04A1 54746U 22171A   26145.07324457  .00006410  00000+0  28625-3 0  99952 54746  34.9916   6.3385 0006547  78.7513 281.3936 15.20667725191608

JSON: /api/v1/satellites/54746 · /tle

For live sub-satellite position, see the globe view (requires WebGL).

§ Visibility from observer

Set your observer location to see the next 7 days of passes ≥ 10°. The values pass through the URL so the page stays shareable.

No JS? Fill the form by hand. The geolocation button needs JavaScript.